Weather History for KAVK - October, 2013

Change the Weather History Date:

Sunday, October 6, 2013

  Actual Average Record
Temperature  
Mean Temperature 57 °F -  
Max Temperature 73 °F 78 °F 95 °F (1963)
Min Temperature 41 °F 50 °F 35 °F (2001)
Degree Days  
Heating Degree Days 8    
Growing Degree Days 7 (Base 50)    
Moisture  
Dew Point 28 °F    
Average Humidity 37    
Maximum Humidity 61    
Minimum Humidity 17    
Precipitation  
Precipitation 0.00 in - - ()
Sea Level Pressure  
Sea Level Pressure 30.09 in    
Wind  
Wind Speed 12 mph (NW)    
Max Wind Speed 24 mph    
Max Gust Speed 34 mph    
Visibility 10 miles    
Events      
Averages and records for this station are not official NWS values.
T = Trace of Precipitation, MM = Missing Value Source: NWS Daily Summary

Daily Weather History Graph

Daily Weather History Graph

Search for Another Location

Airport or City:

Trip Planner

Search our weather history database for the weather conditions in past years. The results will help you decide how hot, cold, wet, or windy it might be!

Date:

Astronomy

Oct. 06, 2013 Rise Set
Actual Time 7:34 AM CDT 7:10 PM CDT
Civil Twilight 7:08 AM CDT 7:36 PM CDT
Nautical Twilight 6:38 AM CDT 8:06 PM CDT
Astronomical Twilight 6:08 AM CDT 8:36 PM CDT
Moon 9:17 AM CDT 8:14 PM CDT
Length of Visible Light 12h 27m
Length of Day
11h 35m
Waxing Crescent, 3% of the Moon is Illuminated
Oct 6
Waxing Crescent
Oct 11
First Quarter
Oct 18
Full
Oct 26
Last Quarter
Nov 3
New

Hourly Weather History & Observations

Time (CDT) Temp. Windchill Dew Point Humidity Pressure Visibility Wind Dir Wind Speed Gust Speed Precip Events Conditions
12:15 AM 46.4 °F 42.4 °F 28.4 °F 50% 30.10 in 10.0 mi WNW 8.1 mph - N/A   Clear
12:35 AM 50.0 °F - 26.6 °F 40% 30.10 in 10.0 mi WNW 10.4 mph 16.1 mph N/A   Clear
12:55 AM 48.2 °F - 28.4 °F 46% 30.10 in 10.0 mi West 10.4 mph - N/A   Clear
1:15 AM 46.4 °F 41.9 °F 28.4 °F 50% 30.10 in 10.0 mi West 9.2 mph - N/A   Clear
1:35 AM 46.4 °F 41.9 °F 28.4 °F 50% 30.10 in 10.0 mi West 9.2 mph - N/A   Clear
1:55 AM 46.4 °F 42.9 °F 28.4 °F 50% 30.10 in 10.0 mi West 6.9 mph - N/A   Clear
2:15 AM 46.4 °F 43.5 °F 28.4 °F 50% 30.10 in 10.0 mi West 5.8 mph - N/A   Clear
2:35 AM 44.6 °F 40.7 °F 28.4 °F 53% 30.09 in 10.0 mi West 6.9 mph - N/A   Clear
2:55 AM 44.6 °F 41.4 °F 28.4 °F 53% 30.08 in 10.0 mi West 5.8 mph - N/A   Clear
3:15 AM 44.6 °F 41.4 °F 28.4 °F 53% 30.08 in 10.0 mi WNW 5.8 mph - N/A   Clear
3:35 AM 46.4 °F 41.5 °F 26.6 °F 46% 30.08 in 10.0 mi WNW 10.4 mph - N/A   Clear
3:55 AM 44.6 °F 39.2 °F 26.6 °F 49% 30.08 in 10.0 mi West 10.4 mph - N/A   Clear
4:15 AM 44.6 °F 38.8 °F 26.6 °F 49% 30.08 in 10.0 mi WNW 11.5 mph 17.3 mph N/A   Clear
4:35 AM 46.4 °F 40.4 °F 24.8 °F 43% 30.08 in 10.0 mi WNW 13.8 mph 19.6 mph N/A   Clear
4:55 AM 46.4 °F 39.8 °F 24.8 °F 43% 30.09 in 10.0 mi NW 16.1 mph 20.7 mph N/A   Clear
5:15 AM 46.4 °F 39.5 °F 24.8 °F 43% 30.10 in 10.0 mi NW 17.3 mph 23.0 mph N/A   Clear
5:35 AM 46.4 °F 39.2 °F 24.8 °F 43% 30.09 in 10.0 mi NW 18.4 mph 23.0 mph N/A   Clear
5:55 AM 46.4 °F 40.1 °F 24.8 °F 43% 30.10 in 10.0 mi NW 15.0 mph - N/A   Clear
6:15 AM 46.4 °F 40.4 °F 24.8 °F 43% 30.11 in 10.0 mi WNW 13.8 mph - N/A   Clear
6:35 AM 44.6 °F 39.2 °F 24.8 °F 46% 30.12 in 10.0 mi West 10.4 mph - N/A   Clear
6:55 AM 42.8 °F 36.2 °F 26.6 °F 53% 30.11 in 10.0 mi WNW 12.7 mph - N/A   Clear
7:15 AM 42.8 °F 35.4 °F 26.6 °F 53% 30.11 in 10.0 mi WNW 15.0 mph - N/A   Clear
7:35 AM 42.8 °F 36.6 °F 26.6 °F 53% 30.11 in 10.0 mi WNW 11.5 mph - N/A   Clear
7:55 AM 42.8 °F 37.5 °F 26.6 °F 53% 30.11 in 10.0 mi WNW 9.2 mph - N/A   Clear
8:15 AM 41.0 °F 34.3 °F 28.4 °F 61% 30.12 in 10.0 mi West 11.5 mph - N/A   Clear
8:35 AM 44.6 °F 39.7 °F 28.4 °F 53% 30.12 in 10.0 mi West 9.2 mph - N/A   Clear
8:55 AM 48.2 °F - 28.4 °F 46% 30.13 in 10.0 mi WNW 10.4 mph - N/A   Clear
9:15 AM 51.8 °F - 28.4 °F 41% 30.12 in 10.0 mi NW 18.4 mph 23.0 mph N/A   Clear
9:35 AM 53.6 °F - 28.4 °F 38% 30.13 in 10.0 mi NW 18.4 mph 28.8 mph N/A   Clear
9:55 AM 55.4 °F - 28.4 °F 36% 30.13 in 10.0 mi NW 18.4 mph 27.6 mph N/A   Clear
10:15 AM 55.4 °F - 28.4 °F 36% 30.13 in 10.0 mi NNW 19.6 mph 27.6 mph N/A   Clear
10:35 AM 57.2 °F - 28.4 °F 33% 30.13 in 10.0 mi NNW 21.9 mph 29.9 mph N/A   Clear
10:55 AM 57.2 °F - 26.6 °F 31% 30.13 in 10.0 mi NNW 24.2 mph 32.2 mph N/A   Clear
11:15 AM 59.0 °F - 26.6 °F 29% 30.13 in 10.0 mi NNW 17.3 mph 29.9 mph N/A   Clear
11:35 AM 60.8 °F - 26.6 °F 27% 30.13 in 10.0 mi NNW 15.0 mph 24.2 mph N/A   Clear
11:55 AM 64.4 °F - 24.8 °F 22% 30.12 in 10.0 mi NW 18.4 mph 32.2 mph N/A   Clear
12:15 PM 64.4 °F - 26.6 °F 24% 30.12 in 10.0 mi NW 21.9 mph 34.5 mph N/A   Clear
12:35 PM 66.2 °F - 28.4 °F 24% 30.12 in 10.0 mi NW 21.9 mph 27.6 mph N/A   Clear
12:55 PM 66.2 °F - 26.6 °F 23% 30.12 in 10.0 mi NW 21.9 mph 28.8 mph N/A   Clear
1:15 PM 66.2 °F - 26.6 °F 23% 30.11 in 10.0 mi NW 19.6 mph 27.6 mph N/A   Clear
1:35 PM 68.0 °F - 26.6 °F 21% 30.10 in 10.0 mi NW 18.4 mph 28.8 mph N/A   Clear
1:55 PM 68.0 °F - 26.6 °F 21% 30.09 in 10.0 mi NNW 18.4 mph 26.5 mph N/A   Clear
2:15 PM 69.8 °F - 26.6 °F 20% 30.08 in 10.0 mi NNW 19.6 mph 31.1 mph N/A   Clear
2:35 PM 71.6 °F - 24.8 °F 17% 30.07 in 10.0 mi NW 18.4 mph 28.8 mph N/A   Clear
2:55 PM 71.6 °F - 24.8 °F 17% 30.07 in 10.0 mi NNW 12.7 mph 25.3 mph N/A   Clear
3:15 PM 71.6 °F - 24.8 °F 17% 30.06 in 10.0 mi NW 19.6 mph 25.3 mph N/A   Clear
3:35 PM 71.6 °F - 26.6 °F 19% 30.06 in 10.0 mi WNW 11.5 mph 29.9 mph N/A   Clear
3:55 PM 73.4 °F - 26.6 °F 18% 30.05 in 10.0 mi NNW 16.1 mph 25.3 mph N/A   Clear
4:15 PM 73.4 °F - 26.6 °F 18% 30.05 in 10.0 mi NW 16.1 mph 23.0 mph N/A   Clear
4:35 PM 73.4 °F - 26.6 °F 18% 30.05 in 10.0 mi NW 19.6 mph 24.2 mph N/A   Clear
4:55 PM 73.4 °F - 26.6 °F 18% 30.05 in 10.0 mi NW 18.4 mph - N/A   Clear
5:15 PM 73.4 °F - 28.4 °F 19% 30.04 in 10.0 mi NW 13.8 mph 19.6 mph N/A   Clear
5:35 PM 73.4 °F - 28.4 °F 19% 30.04 in 10.0 mi NW 18.4 mph 21.9 mph N/A   Clear
5:55 PM 73.4 °F - 28.4 °F 19% 30.05 in 10.0 mi NW 11.5 mph - N/A   Clear
6:15 PM 71.6 °F - 28.4 °F 20% 30.05 in 10.0 mi NW 11.5 mph - N/A   Clear
6:35 PM 71.6 °F - 28.4 °F 20% 30.05 in 10.0 mi NW 9.2 mph - N/A   Clear
6:55 PM 68.0 °F - 32.0 °F 26% 30.05 in 10.0 mi NW 6.9 mph - N/A   Clear
7:15 PM 66.2 °F - 30.2 °F 26% 30.06 in 10.0 mi NW 9.2 mph - N/A   Clear
7:35 PM 64.4 °F - 32.0 °F 30% 30.06 in 10.0 mi NW 6.9 mph - N/A   Clear
7:55 PM 62.6 °F - 32.0 °F 32% 30.06 in 10.0 mi NW 5.8 mph - N/A   Clear
8:15 PM 62.6 °F - 32.0 °F 32% 30.06 in 10.0 mi NNW 6.9 mph - N/A   Clear
8:35 PM 60.8 °F - 32.0 °F 34% 30.07 in 10.0 mi NNW 6.9 mph - N/A   Clear
8:55 PM 59.0 °F - 33.8 °F 39% 30.08 in 10.0 mi NW 5.8 mph - N/A   Clear
9:15 PM 57.2 °F - 33.8 °F 41% 30.08 in 10.0 mi NW 6.9 mph - N/A   Clear
9:35 PM 55.4 °F - 33.8 °F 44% 30.09 in 10.0 mi NW 5.8 mph - N/A   Clear
9:55 PM 57.2 °F - 33.8 °F 41% 30.09 in 10.0 mi NNW 5.8 mph - N/A   Clear
10:15 PM 55.4 °F - 33.8 °F 44% 30.10 in 10.0 mi NW 6.9 mph - N/A   Clear
10:35 PM 53.6 °F - 35.6 °F 51% 30.10 in 10.0 mi NW 6.9 mph - N/A   Clear
10:55 PM 53.6 °F - 35.6 °F 51% 30.10 in 10.0 mi NW 8.1 mph - N/A   Clear
11:15 PM 55.4 °F - 33.8 °F 44% 30.10 in 10.0 mi NNW 6.9 mph - N/A   Clear
11:35 PM 55.4 °F - 35.6 °F 47% 30.10 in 10.0 mi NNW 8.1 mph - N/A   Clear
11:55 PM 55.4 °F - 35.6 °F 47% 30.10 in 10.0 mi NNW 9.2 mph - N/A   Clear